STARLINK-3312, 50850

Orbit data source: Space-Track

STARLINK-3312, 50850 is a payload satellite owned by SpaceX/Seattle (US) in LEO that was launched on Thu, 06 Jan 2022 UTC via an FALCON 9 launch vehicle from the Air Force Eastern Test Range (AFETR). Payload-class satellites include a variety of spacecraft equipped with specific instruments for various scientific and technological missions. These include communications satellites like Starlink; space stations such as the ISS; scientific satellites like the Hubble; Earth observation satellites from companies like Planet Labs, Umbra, and HawkEye 360; GPS; miniature CubeSats for education and research; and military/defense satellites.

Loading next visibility...
Identifier
50850, 2022-001AZ
Orbit
LEO
Country
Flag of USUS
Related business
Manufacturer
SpaceX/Seattle
Mission
Operational Commercial Communications
Bus & Motor
STARLINK, Unknown motor
Mass
297 kg wet, ~275 kg dry
Launch date (UTC)
2022-01-06 (4 years ago)
Launch vehicle
FALCON 9
Launch site
Air Force Eastern Test Range (AFETR)
Object type
Payload
Rocket body
Debris
Shape & HBR
Box + 1 Pan, 10.1 m
Radar Cross Section
13.562 m², Large (>1 m²)

Expand to show TLE details & history
Last TLE update: 2 days ago

TLE from 2 days ago
0 STARLINK-3312
1 50850U 22001AZ  26171.01327942  .00000515  00000-0  50453-4 0  9990
2 50850  53.1609  39.6602 0001315  87.3497 272.7645 15.08833156246812
Epoch: 2026-06-20T00:19Z
TLE epoch observation values (Epoch: 2026-06-20T00:19:07.341Z)
Latitude
-0.00004°
Longitude
126.64558°
Altitude
540.612 km
Speed
7.593 km/s
True Right ascension
02h 38m 38s
True Declination
0° 00' 00"
Sunlit
Object was in daylight at epoch
Visualization orbit readout
Latitude
Unknown
Longitude
Unknown
Altitude
Unknown
Speed
Unknown
Apparent Right ascension
Unknown
Apparent Declination
Unknown
Sunlit
N/A
Visualization observer readout
Local Sidereal Time
21:34:11
Azimuth
Unknown
Elevation
Unknown
Doppler factor
Unknown
Orbital elements
Apogee altitude
540.928 km
Perigee altitude
539.109 km
Semi-major axis
6,918.155 km
Eccentricity
0.00013
Inclination
53.1609°
RAAN
39.6602°
Arg. of periapsis
87.3497°
True anomaly
272.74945°
Mean anomaly
272.7645°
Eccentric anomaly
272.75697°
Mean motion
3.77188 °/min
Orbital period
95.44 mins
BSTAR
0.000050453
Loading maneuver chart data...
Computing Atmospheric mass density...
Loading historical data...
Loading historical data...
Loading historical data...
Loading historical data...
Loading historical data...
Loading historical data...
Loading historical data...

Documentation

Showing up to 5 results
|